Theta_e
318 318 318 318 319 319 319 318 318 318 318 318 317 314 312 311 312 313 312 313 315 317 319 321 324 327 328 327 327 330 331 331 330 329 327 327 328 330 333 334 335 335 332
316 317 318 319 319 318 318 317 318 318 318 317 316 313 312 311 312 312 312 313 315 317 317 318 323 324 327 330 330 330 327 326 329 327 327 327 326 326 332 334 333 331 329
314 315 316 317 316 317 317 318 318 317 317 316 315 313 312 311 312 312 313 314 315 315 315 316 317 324 328 328 327 323 323 323 324 325 326 326 325 328 332 333 332 333 331
312 312 312 312 313 313 314 315 315 315 315 314 313 312 311 310 311 312 313 314 314 315 315 315 316 317 321 324 324 324 323 323 323 323 325 326 327 329 330 328 326 324 328
311 311 311 311 312 312 312 312 313 313 313 313 312 312 311 311 310 311 312 313 314 315 316 316 316 315 315 319 323 325 325 324 323 324 324 326 325 323 323 324 324 325 322
310 309 309 310 310 310 310 311 311 312 312 312 312 311 311 311 311 310 309 311 310 313 315 316 316 316 316 317 317 319 323 323 323 324 325 326 325 324 324 324 320 319 315
305 305 305 306 306 306 306 307 308 309 310 310 311 311 311 311 309 309 308 308 309 311 314 316 316 317 318 318 317 318 320 323 323 325 327 324 322 325 323 318 318 318 318
302 302 303 303 303 303 304 305 306 306 307 308 309 310 309 308 309 308 307 307 309 312 314 316 317 317 318 317 317 318 320 324 325 326 327 326 325 322 316 314 315 318 316
301 301 301 301 302 301 301 301 302 303 304 307 307 307 308 308 308 308 308 308 309 311 314 316 317 317 319 322 320 320 323 325 327 327 324 319 315 314 314 314 315 312 310
299 299 299 300 299 299 299 299 300 301 302 303 305 305 306 307 307 307 307 309 309 312 316 317 318 317 318 322 322 320 317 318 315 315 316 317 316 316 316 314 312 313 312
297 297 297 297 297 298 297 298 299 299 300 301 302 303 305 306 307 307 308 308 310 315 315 316 317 318 318 320 321 320 316 315 316 317 316 316 317 317 315 313 314 315 315
296 296 295 295 295 296 296 296 297 298 299 299 300 301 305 305 306 307 308 307 311 311 312 316 316 318 320 319 314 314 315 317 317 317 317 317 316 314 314 315 316 318 320
294 294 294 295 295 295 295 296 296 297 298 299 303 304 305 305 306 307 306 306 312 308 309 314 317 317 315 314 314 317 317 317 317 317 316 316 315 314 315 316 316 318 320
293 293 293 294 294 295 295 296 296 297 298 300 302 306 306 305 305 305 305 310 310 309 309 314 317 316 312 314 316 316 316 317 318 318 317 316 315 315 315 316 317 318 322
292 292 293 294 294 295 295 295 296 296 298 300 303 304 304 303 304 305 307 311 310 309 311 312 314 312 312 315 317 317 318 319 318 318 318 317 315 314 315 316 318 322 323
291 292 293 293 294 295 295 296 296 296 298 299 299 303 304 304 305 305 306 310 308 308 311 313 313 314 314 315 316 316 319 319 319 319 319 317 316 315 315 317 321 322 323
291 291 291 292 292 294 295 296 296 297 298 299 301 302 303 305 303 303 304 307 309 313 311 314 315 315 316 317 318 318 318 319 317 318 318 317 316 316 316 318 321 323 324
289 290 291 292 292 293 294 295 296 295 299 299 302 302 302 302 303 303 303 304 308 310 313 314 315 316 316 317 317 317 317 317 317 317 316 317 316 315 318 320 321 322 325
290 291 292 293 294 294 294 295 295 295 297 301 301 301 302 301 302 302 302 303 305 306 312 314 315 316 317 317 316 317 317 317 316 317 317 315 315 317 320 321 320 321 324
291 292 294 295 296 296 295 295 295 295 298 299 301 301 301 301 301 300 301 302 303 305 308 314 315 317 317 318 318 318 318 318 317 314 312 312 313 316 321 321 320 320 321
292 294 299 301 299 296 295 295 295 297 299 299 301 301 302 301 301 301 301 301 303 304 306 312 315 316 316 317 317 317 317 314 312 312 315 316 319 318 321 322 321 322 323
294 298 301 299 298 296 295 295 296 297 298 298 299 302 302 301 301 300 301 302 302 304 305 309 313 315 317 317 315 312 312 311 311 313 314 319 321 322 322 322 322 322 323
294 296 298 300 297 296 295 296 296 296 297 298 299 301 302 302 302 300 301 302 302 304 306 308 313 314 314 313 313 313 312 311 312 314 318 320 320 321 322 323 323 322 322
291 293 294 296 298 297 296 296 296 296 296 297 298 300 302 303 303 304 303 303 304 305 307 308 313 313 312 311 313 313 315 316 316 316 316 317 319 320 322 322 322 323 323
289 290 291 292 293 295 299 298 297 296 297 299 299 299 300 301 303 304 305 305 305 306 307 309 311 312 311 312 312 313 312 312 311 310 310 313 319 320 321 322 321 316 311
286 287 288 289 290 291 292 294 298 299 298 300 300 301 301 301 301 305 306 306 307 306 307 308 310 311 312 312 312 311 310 309 310 310 311 313 318 319 321 321 318 311 309
Wind_Speed
26 27 26 26 25 23 23 24 25 25 23 21 16 13 11 9 8 7 9 14 20 23 24 24 23 23 26 28 26 26 23 18 8 7 7 16 23 16 24 28 25 24 24
24 26 29 29 27 26 28 30 32 31 29 27 23 18 15 13 12 11 9 10 14 20 24 23 24 20 22 22 25 24 16 15 16 9 16 27 30 30 27 27 23 22 21
9 18 25 27 28 30 33 35 36 33 32 29 25 22 19 17 16 14 13 11 13 17 22 25 25 22 19 23 25 18 16 18 20 17 27 27 24 29 25 22 22 18 19
13 13 13 15 19 23 28 32 34 34 32 30 28 27 24 21 19 18 16 16 17 21 24 27 31 29 24 24 28 31 26 24 23 23 19 17 22 26 21 17 15 12 11
16 17 20 22 23 25 28 29 29 29 33 35 34 30 27 25 23 21 18 18 21 27 30 31 32 34 33 30 30 32 32 28 21 20 17 13 13 12 17 15 14 13 11
16 18 21 23 25 27 28 29 31 33 36 38 38 35 32 29 24 19 18 20 24 29 31 34 36 38 39 40 42 45 41 32 29 23 19 17 20 18 12 13 10 5 2
23 24 23 25 26 27 30 32 33 32 29 30 32 32 31 27 23 20 21 27 30 32 32 32 32 32 38 43 42 46 51 41 36 32 25 22 19 20 18 13 11 7 6
25 25 26 27 29 30 30 31 31 31 31 33 31 33 31 28 25 22 24 30 31 34 37 34 33 37 43 48 51 45 44 42 39 40 34 29 20 19 16 11 8 7 8
24 26 26 26 24 22 23 25 26 25 25 26 26 26 29 30 27 27 27 36 32 33 34 30 34 38 44 43 45 39 34 30 34 27 16 18 19 19 14 9 7 5 3
26 25 25 24 25 25 24 25 24 22 23 25 26 29 30 34 36 40 38 28 25 25 21 27 30 33 22 21 26 29 26 30 32 27 27 24 20 16 13 11 10 9 5
26 25 25 25 25 24 25 24 22 23 24 26 26 28 27 29 31 28 25 25 25 17 16 18 24 27 15 21 26 33 37 37 32 29 24 20 18 14 11 11 13 13 11
25 26 26 26 25 24 22 23 20 22 21 22 24 25 25 30 30 28 24 24 20 13 19 18 20 17 16 21 33 33 36 36 31 25 21 16 12 9 8 10 11 12 13
26 26 25 25 24 23 23 22 19 19 20 22 19 17 19 22 23 24 22 20 19 18 27 26 20 11 24 25 24 31 31 29 26 21 17 13 9 4 5 6 9 11 15
27 25 24 23 23 22 21 20 19 18 17 17 17 14 14 16 15 17 18 14 18 16 23 22 16 10 29 25 28 27 26 24 23 19 14 9 6 4 5 7 9 9 12
25 24 23 22 21 22 21 20 20 20 20 18 18 14 13 11 12 13 15 12 12 15 17 12 9 19 21 23 21 20 19 19 18 15 9 7 4 4 6 6 11 10 7
24 22 21 22 22 20 19 20 20 23 22 25 28 17 16 14 11 5 5 7 7 13 18 12 12 20 17 23 21 18 17 17 16 13 10 9 8 8 8 7 11 9 5
24 26 25 23 20 18 17 16 10 16 17 19 19 19 12 15 12 3 3 6 6 14 15 15 15 20 20 24 24 19 19 19 17 13 14 11 8 9 9 10 10 8 6
26 27 25 24 22 19 16 15 13 10 8 12 13 16 13 13 11 8 2 6 7 9 11 14 17 22 23 21 19 18 14 14 15 15 11 8 8 8 9 14 11 9 10
26 24 23 23 22 18 15 13 12 11 12 7 8 13 17 17 17 14 8 6 7 11 8 11 17 19 22 20 19 16 14 13 11 8 9 7 6 10 13 13 10 9 8
24 26 26 24 20 13 11 10 9 9 9 9 5 7 9 12 14 16 14 11 11 10 6 13 18 19 17 16 15 12 11 9 8 10 8 9 8 11 14 13 10 8 10
23 24 24 17 10 4 5 6 6 8 4 5 5 9 10 13 18 19 16 16 15 12 4 9 15 20 21 20 17 14 13 14 13 8 3 4 3 6 10 11 9 7 9
20 19 13 13 11 6 3 2 4 4 3 3 4 1 8 9 9 15 14 14 13 9 4 1 11 19 23 22 21 19 15 12 9 7 4 3 2 3 7 9 9 8 13
18 17 16 11 10 8 6 3 3 4 1 3 1 4 5 5 3 8 12 14 13 9 5 2 8 15 21 25 19 14 10 9 9 7 5 3 1 3 7 8 7 9 16
19 18 17 16 11 7 6 4 4 2 2 5 5 3 5 4 3 3 6 8 8 7 6 2 10 19 20 19 19 17 14 13 9 7 3 0 3 6 6 8 9 9 17
21 20 19 18 17 15 5 4 3 1 1 1 2 4 5 4 4 1 1 2 6 8 8 6 11 17 19 21 19 17 13 9 3 1 5 5 7 7 6 7 3 6 19
24 22 21 20 19 18 16 14 8 4 2 2 2 1 3 4 3 3 2 2 1 8 8 11 11 12 14 14 13 9 6 2 2 5 7 8 8 10 7 3 9 17 23
Wind_Direction
230 235 238 240 238 240 244 250 253 257 256 254 251 256 274 288 301 314 325 321 312 305 301 297 284 266 249 241 231 230 229 222 216 225 254 280 280 281 265 247 240 245 249
268 258 248 245 246 245 247 252 253 250 251 253 250 253 260 269 275 279 291 303 300 300 302 300 293 281 266 243 223 213 204 224 224 231 260 248 264 271 278 250 244 240 241
304 283 271 264 264 260 255 254 253 252 251 250 248 250 255 260 262 266 274 278 281 279 283 284 284 282 246 232 216 206 227 217 220 206 232 247 248 270 256 236 237 244 252
335 327 324 312 305 298 286 277 275 271 263 254 253 255 258 257 259 262 265 273 278 275 274 272 272 265 251 243 232 222 229 232 225 217 209 217 236 256 240 238 239 238 244
325 318 312 308 302 297 293 289 286 276 267 264 263 259 256 250 248 252 258 268 277 275 276 271 262 259 252 246 237 236 232 233 220 214 217 212 217 209 211 218 220 221 242
317 312 309 306 303 299 298 298 294 287 280 275 266 257 252 246 242 247 263 270 277 276 267 269 265 262 259 256 258 247 242 227 214 216 205 218 210 205 187 183 189 192 252
316 310 305 302 298 296 295 292 286 284 285 280 273 265 250 237 247 257 271 278 279 272 266 258 256 256 255 250 252 252 239 225 211 209 204 200 201 196 189 190 191 191 213
304 299 296 293 288 287 283 280 278 275 273 270 266 260 248 250 251 263 276 283 280 278 273 259 258 267 267 248 246 233 217 215 220 215 222 222 222 188 190 199 199 223 258
294 293 294 293 292 293 292 291 290 293 287 276 265 259 260 263 259 270 271 276 267 279 276 264 269 291 282 269 214 198 189 185 211 216 207 169 172 175 176 182 210 220 260
298 296 292 287 288 286 285 286 283 283 284 281 276 266 265 262 266 270 268 252 269 273 273 278 290 300 270 151 152 154 146 151 161 153 160 161 161 172 187 211 220 201 204
294 291 290 288 284 281 284 283 278 280 277 274 271 266 268 268 268 269 251 261 259 271 279 286 292 290 163 174 165 153 156 154 158 159 158 164 168 181 211 227 223 223 212
294 291 290 287 284 279 276 278 274 276 277 281 274 271 260 266 264 266 256 259 261 272 298 272 276 245 211 192 161 157 154 154 155 154 157 163 176 205 227 220 227 241 247
295 292 290 284 281 278 276 275 275 272 270 266 262 269 258 260 261 255 254 266 246 270 267 281 271 291 192 186 168 153 151 153 154 156 168 178 181 189 210 234 247 252 261
294 288 286 283 282 277 272 268 271 267 267 275 272 264 244 251 248 258 261 259 238 251 275 275 258 254 190 182 161 157 160 161 164 171 178 176 181 208 227 259 279 256 270
290 289 287 284 281 280 274 267 265 269 262 268 275 259 239 239 255 259 260 242 230 260 296 261 170 166 176 165 158 163 165 173 177 181 189 203 210 241 255 282 261 256 245
293 294 291 290 287 281 278 276 264 278 269 272 270 275 243 242 196 136 41 207 217 271 277 224 165 162 172 166 171 172 182 188 199 199 213 232 250 268 288 278 243 269 268
296 295 293 289 282 278 274 271 270 288 277 284 260 252 256 180 169 153 23 11 193 239 223 197 173 168 177 170 174 179 192 205 211 212 222 228 252 270 282 239 234 247 184
294 289 282 279 272 269 263 265 250 263 272 282 224 226 219 225 221 215 270 344 312 255 217 181 167 168 175 173 171 177 181 187 197 203 209 233 256 251 230 225 224 226 194
299 294 290 283 275 262 254 258 238 249 273 263 224 210 227 237 240 238 235 236 271 284 216 193 189 180 172 171 166 164 168 179 190 197 214 207 226 229 223 225 228 225 212
307 302 299 290 279 258 234 243 227 248 252 243 236 221 232 227 229 225 221 213 255 284 255 203 195 186 179 179 191 194 182 196 188 185 193 213 230 230 224 223 225 218 220
311 310 319 348 347 277 237 233 231 254 181 260 246 230 220 229 224 221 218 214 226 251 260 185 188 195 201 200 214 214 176 158 169 175 183 239 227 200 217 234 239 233 225
320 323 346 5 17 23 4 235 228 176 171 245 305 249 222 227 231 226 219 219 221 241 243 210 184 184 179 182 168 157 160 177 190 182 182 153 170 216 238 245 247 229 200
344 349 355 6 26 35 40 40 120 150 184 239 307 337 209 227 233 206 214 223 228 234 230 207 165 172 166 159 158 158 157 163 171 170 165 156 164 282 279 276 269 243 204
2 3 4 5 14 40 41 59 80 112 220 251 236 281 12 270 243 102 194 209 221 231 204 197 167 167 167 161 149 145 145 136 129 120 114 52 284 292 304 338 325 256 235
11 12 12 10 8 12 16 56 67 101 47 12 207 257 292 337 21 35 37 131 213 215 192 150 152 174 178 167 162 160 158 146 134 339 319 284 278 292 322 339 277 150 132
19 19 18 15 16 17 18 17 17 9 350 45 168 185 245 274 306 23 78 82 141 204 192 176 154 147 157 155 151 150 154 201 286 292 295 287 281 295 311 334 181 144 141